Date,TemperatureHighF,TemperatureAvgF,TemperatureLowF,DewpointHighF,DewpointAvgF,DewpointLowF,HumidityHigh,HumidityAvg,HumidityLow,PressureMaxIn,PressureMinIn,WindSpeedMaxMPH,WindSpeedAvgMPH,GustSpeedMaxMPH,PrecipitationSumIn
2013-1-1,30,20,9,-100,-100,-100,0,0,100,29.98,29.68,2,1,16,0.00
2013-1-2,17,11,2,-100,-100,-100,0,0,100,30.29,29.89,1,0,13,0.00
2013-1-3,11,4,-4,-100,-100,-100,0,0,100,30.30,29.93,1,0,5,0.00
2013-1-4,33,25,12,-100,-100,-100,0,0,100,29.92,29.75,3,1,13,0.00
2013-1-5,32,25,14,-100,-100,-100,0,0,100,30.26,29.78,3,0,15,0.00
2013-1-6,33,26,17,-100,-100,-100,0,0,100,30.20,29.88,1,0,7,0.00
2013-1-7,24,20,16,-100,-100,-100,0,0,100,30.40,30.02,1,0,10,0.00
2013-1-8,35,29,24,-100,-100,-100,0,0,100,30.38,30.19,2,0,12,0.00
2013-1-9,38,30,19,-100,-100,-100,0,0,100,30.38,29.89,4,1,16,0.00
2013-1-10,36,33,28,-100,-100,-100,0,0,100,30.58,30.04,3,1,23,0.00
2013-1-11,36,31,25,-100,-100,-100,0,0,100,30.56,30.08,2,0,11,0.00
2013-1-12,43,38,36,-100,-100,-100,0,0,100,30.13,30.03,1,0,13,0.00
2013-1-13,47,40,35,-100,-100,-100,0,0,100,30.13,29.85,3,1,13,0.00
2013-1-14,47,41,33,-100,-100,-100,0,0,100,30.30,29.79,3,1,16,0.00
2013-1-15,34,31,27,-100,-100,-100,0,0,100,30.36,30.26,0,0,8,0.00
2013-1-16,31,29,28,-100,-100,-100,0,0,100,30.25,29.78,1,0,5,0.00
2013-1-17,32,22,10,-100,-100,-100,0,0,100,30.22,29.79,3,1,17,0.00
2013-1-18,22,12,2,-100,-100,-100,0,0,100,30.37,30.20,2,0,16,0.00
2013-1-19,39,30,21,-100,-100,-100,0,0,100,30.23,29.74,4,2,14,0.00
2013-1-20,40,33,19,-100,-100,-100,0,0,100,29.98,29.39,8,3,21,0.00
2013-1-21,20,14,9,-100,-100,-100,0,0,100,30.08,29.86,0,0,8,0.00
2013-1-22,15,11,5,-100,-100,-100,0,0,100,30.11,29.83,1,0,14,0.00
2013-1-23,6,1,-4,-100,-100,-100,0,0,100,30.23,30.11,0,0,8,0.00
2013-1-24,14,3,-7,-100,-100,-100,0,0,100,30.38,30.16,1,0,14,0.00
2013-1-25,15,9,0,-100,-100,-100,0,0,100,30.42,30.12,0,0,6,0.00
2013-1-26,18,12,5,-100,-100,-100,0,0,100,30.32,30.13,0,0,5,0.00
2013-1-27,22,13,7,-100,-100,-100,0,0,100,30.53,30.33,0,0,5,0.00
2013-1-28,22,16,8,-100,-100,-100,0,0,100,30.50,29.99,0,0,1,0.00
2013-1-29,34,27,23,-100,-100,-100,0,0,100,30.19,29.96,0,0,1,0.00
2013-1-30,55,46,34,-100,-100,-100,0,0,100,29.96,29.26,7,3,21,0.00
2013-1-31,54,38,24,-100,-100,-100,0,0,100,29.55,28.85,10,4,22,0.00
2013-2-1,24,19,15,-100,-100,-100,0,0,100,30.14,29.55,4,0,17,0.00
2013-2-2,22,18,12,-100,-100,-100,0,0,100,30.20,30.02,3,0,14,0.00
2013-2-3,29,19,10,-100,-100,-100,0,0,100,30.05,29.77,0,0,4,0.00
2013-2-4,27,18,11,-100,-100,-100,0,0,100,29.95,29.75,5,0,15,0.00
2013-2-5,26,14,2,-100,-100,-100,0,0,100,30.06,29.90,0,0,3,0.00
2013-2-6,28,22,12,-100,-100,-100,0,0,100,30.40,29.88,2,0,15,0.00
2013-2-7,15,10,5,-100,-100,-100,0,0,100,30.61,30.41,0,0,9,0.00
2013-2-8,23,16,10,-100,-100,-100,0,0,100,30.44,29.98,0,0,3,0.00
2013-2-9,21,14,3,-100,-100,-100,0,0,100,30.39,29.98,2,0,16,0.00
2013-2-10,28,12,-3,-100,-100,-100,0,0,100,30.50,30.27,1,0,4,0.00
2013-2-11,37,30,17,-100,-100,-100,0,0,100,30.26,29.60,2,0,19,0.00
2013-2-12,35,34,32,-100,-100,-100,0,0,100,29.85,29.60,1,0,12,0.00
2013-2-13,35,32,31,-100,-100,-100,0,0,100,29.86,29.76,1,0,8,0.00
2013-2-14,34,31,29,-100,-100,-100,0,0,100,29.94,29.77,0,0,5,0.00
2013-2-15,40,35,31,-100,-100,-100,0,0,100,29.97,29.84,3,1,14,0.00
2013-2-16,32,27,21,-100,-100,-100,0,0,100,30.04,29.96,1,0,10,0.00
2013-2-17,20,16,13,-100,-100,-100,0,0,100,29.95,29.72,2,1,19,0.00
2013-2-18,30,17,9,-100,-100,-100,0,0,100,30.17,29.90,2,0,17,0.00
2013-2-19,42,28,15,-100,-100,-100,0,0,100,30.16,29.62,2,0,13,0.00
2013-2-20,32,28,24,-100,-100,-100,0,0,100,29.79,29.63,2,0,13,0.00
2013-2-21,22,18,12,-100,-100,-100,0,0,100,30.39,29.81,1,0,15,0.00
2013-2-22,32,25,15,-100,-100,-100,0,0,100,30.45,30.24,0,0,2,0.00
2013-2-23,34,32,30,-100,-100,-100,0,0,100,30.24,29.90,0,0,9,0.00
2013-2-24,33,32,31,-100,-100,-100,0,0,100,29.97,29.81,1,0,8,0.00
2013-2-25,34,32,31,-100,-100,-100,0,0,100,30.25,29.98,0,0,2,0.00
2013-2-26,39,34,31,-100,-100,-100,0,0,100,30.33,30.12,1,0,12,0.00
2013-2-27,37,34,32,-100,-100,-100,0,0,100,30.10,29.66,2,0,18,0.00
2013-2-28,46,35,32,-100,-100,-100,0,0,100,29.66,29.57,1,0,8,0.00
2013-3-1,37,32,31,-100,-100,-100,0,0,100,29.79,29.63,1,0,13,0.00
2013-3-2,31,29,25,-100,-100,-100,0,0,100,29.81,29.76,1,0,10,0.00
2013-3-3,30,27,25,-100,-100,-100,0,0,100,29.78,29.70,0,0,5,0.00
2013-3-4,28,26,25,-100,-100,-100,0,0,100,29.92,29.73,0,0,7,0.00
2013-3-5,37,29,25,-100,-100,-100,0,0,100,30.14,29.93,0,0,4,0.00
2013-3-6,39,31,22,-100,-100,-100,0,0,100,30.21,30.12,0,0,7,0.00
2013-3-7,35,32,30,-100,-100,-100,0,0,100,30.22,30.18,1,0,8,0.00
2013-3-8,42,32,28,-100,-100,-100,0,0,100,30.36,30.18,1,0,13,0.00
2013-3-9,50,33,24,-100,-100,-100,0,0,100,30.38,30.31,1,0,7,0.00
2013-3-10,54,40,28,-100,-100,-100,0,0,100,30.34,30.12,3,1,14,0.00
2013-3-11,48,45,41,-100,-100,-100,0,0,100,30.16,29.93,3,1,15,0.00
2013-3-12,50,45,36,-100,-100,-100,0,0,100,29.97,29.72,3,1,18,0.00
2013-3-13,41,35,30,-100,-100,-100,0,0,100,29.85,29.75,1,0,9,0.00
2013-3-14,31,26,20,-100,-100,-100,0,0,100,29.94,29.75,1,0,16,0.00
2013-3-15,34,25,17,-100,-100,-100,0,0,100,29.95,29.59,3,0,13,0.00
2013-3-16,29,24,20,-100,-100,-100,0,0,100,29.94,29.75,0,0,11,0.00
2013-3-17,31,21,14,-100,-100,-100,0,0,100,30.37,29.94,1,0,14,0.00
2013-3-18,35,23,12,-100,-100,-100,0,0,100,30.46,30.12,0,0,6,0.00
2013-3-19,32,30,28,-100,-100,-100,0,0,100,30.11,29.74,1,0,10,0.00
2013-3-20,31,28,25,-100,-100,-100,0,0,100,29.74,29.67,1,0,9,0.00
2013-3-21,26,26,25,-100,-100,-100,0,0,100,29.74,29.73,0,0,5,0.00
2013-3-22,36,28,22,-100,-100,-100,0,0,100,29.77,29.67,1,0,9,0.00
2013-3-23,34,32,28,-100,-100,-100,0,0,100,29.83,29.69,3,1,19,0.00
2013-3-24,42,34,28,-100,-100,-100,0,0,100,29.90,29.82,1,0,10,0.00
2013-3-25,41,32,24,-100,-100,-100,0,0,100,29.84,29.59,1,0,9,0.00
2013-3-26,48,37,31,-100,-100,-100,0,0,100,29.82,29.64,1,0,11,0.00
2013-3-27,50,38,30,-100,-100,-100,0,0,100,29.97,29.80,1,0,13,0.00
2013-3-28,53,39,33,-100,-100,-100,0,0,100,30.08,29.96,1,0,7,0.00
2013-3-29,47,40,36,-100,-100,-100,0,0,100,30.10,30.04,1,0,11,0.00
2013-3-30,56,39,28,-100,-100,-100,0,0,100,30.14,30.06,1,0,10,0.00
2013-3-31,53,42,29,-100,-100,-100,0,0,100,30.11,29.74,3,1,21,0.00
2013-4-1,44,38,29,-100,-100,-100,0,0,100,29.80,29.53,6,1,17,0.00
2013-4-2,33,28,24,-100,-100,-100,0,0,100,29.90,29.80,4,1,16,0.00
2013-4-3,44,33,26,-100,-100,-100,0,0,100,30.21,29.91,3,2,17,0.00
2013-4-4,55,39,27,-100,-100,-100,0,0,100,30.27,29.91,4,1,15,0.00
2013-4-5,45,40,32,-100,-100,-100,0,0,100,30.00,29.82,2,1,17,0.00
2013-4-6,46,33,25,-100,-100,-100,0,0,100,30.31,30.02,2,1,19,0.00
2013-4-7,58,45,32,-100,-100,-100,0,0,100,30.26,29.79,6,3,21,0.00
2013-4-8,57,45,40,-100,-100,-100,0,0,100,30.17,29.88,2,0,13,0.00
2013-4-9,48,44,41,-100,-100,-100,0,0,100,30.05,29.78,1,0,12,0.00
2013-4-10,41,41,41,-100,-100,-100,0,0,100,29.99,29.96,0,0,0,0.00
2013-5-1,62,60,58,-100,-100,-100,0,0,100,30.38,30.37,0,0,22,0.00
2013-5-2,82,65,48,-100,-100,-100,0,0,100,30.44,30.29,1,0,12,0.00
2013-5-3,72,60,49,-100,-100,-100,0,0,100,30.49,30.32,2,0,8,0.00
2013-5-4,77,62,48,-100,-100,-100,0,0,100,30.35,30.18,2,0,11,0.00
2013-5-5,79,63,50,-100,-100,-100,0,0,100,30.25,30.09,2,0,6,0.00
2013-5-6,78,63,49,-100,-100,-100,0,0,100,30.21,30.03,2,0,9,0.00
2013-5-7,83,66,52,-100,-100,-100,0,0,100,30.14,30.01,1,0,10,0.00
2013-5-8,81,65,55,-100,-100,-100,0,0,100,30.15,30.01,2,0,11,0.00
2013-5-9,68,62,57,-100,-100,-100,0,0,100,30.01,29.84,2,0,7,0.00
2013-5-10,70,60,55,-100,-100,-100,0,0,100,29.99,29.78,0,0,1,0.00
2013-5-11,68,61,52,-100,-100,-100,0,0,100,29.78,29.59,2,0,12,0.00
2013-5-12,55,50,44,-100,-100,-100,0,0,100,29.77,29.63,3,1,11,0.00
2013-5-13,51,45,41,-100,-100,-100,0,0,100,30.06,29.75,4,2,14,0.00
2013-5-14,59,46,37,-100,-100,-100,0,0,100,30.12,30.00,0,0,6,0.00
2013-5-15,64,49,36,-100,-100,-100,0,0,100,30.04,29.58,3,1,14,0.00
2013-5-16,73,56,45,-100,-100,-100,0,0,100,29.92,29.61,6,1,16,0.00
2013-5-17,66,55,48,-100,-100,-100,0,0,100,30.22,29.92,2,1,11,0.00
2013-5-18,73,56,43,-100,-100,-100,0,0,100,30.31,30.21,0,0,3,0.00
2013-5-19,68,57,49,-100,-100,-100,0,0,100,30.27,30.10,2,0,12,0.00
2013-5-20,65,59,56,-100,-100,-100,0,0,100,30.10,29.97,1,0,13,0.00
2013-5-21,64,60,57,-100,-100,-100,0,0,100,29.99,29.80,3,0,13,0.00
2013-5-22,75,63,54,-100,-100,-100,0,0,100,29.86,29.72,2,0,14,0.00
2013-5-23,74,65,61,-100,-100,-100,0,0,100,29.76,29.68,3,1,12,0.00
2013-5-24,61,50,46,-100,-100,-100,0,0,100,30.05,29.72,2,1,13,0.00
2013-5-25,46,44,42,-100,-100,-100,0,0,100,30.05,29.92,4,2,18,0.00
2013-5-26,47,44,41,-100,-100,-100,0,0,100,30.09,29.88,3,1,14,0.00
2013-5-27,62,48,37,-100,-100,-100,0,0,100,30.17,30.07,2,1,12,0.00
2013-5-28,68,55,42,-100,-100,-100,0,0,100,30.22,30.08,2,0,8,0.49
2013-5-29,65,59,54,-100,-100,-100,0,0,100,30.09,29.91,2,0,11,0.25
2013-5-30,79,67,56,-100,-100,-100,0,0,100,30.07,29.96,2,0,8,0.00
2013-5-31,85,72,61,-100,-100,-100,0,0,100,30.06,29.86,2,0,10,0.00
2013-6-1,85,73,63,-100,-100,-100,0,0,100,29.93,29.76,3,1,13,1.17
2013-6-2,82,70,63,-100,-100,-100,0,0,100,29.83,29.63,3,1,12,0.60
2013-6-3,66,61,55,-100,-100,-100,0,0,100,29.86,29.75,2,1,13,0.00
2013-6-4,63,56,50,-100,-100,-100,0,0,100,30.11,29.86,3,1,16,0.00
2013-6-5,69,57,47,-100,-100,-100,0,0,100,30.22,30.11,2,0,6,0.00
2013-6-6,60,56,53,-100,-100,-100,0,0,100,30.18,30.06,0,0,5,0.14
2013-6-7,55,54,51,-100,-100,-100,0,0,100,30.08,29.88,1,0,6,0.62
2013-6-8,59,56,53,-100,-100,-100,0,0,100,30.03,29.78,1,0,6,0.08
2013-6-9,70,61,56,-100,-100,-100,0,0,100,30.19,30.02,3,0,10,0.00
2013-6-10,69,61,53,-100,-100,-100,0,0,100,30.20,29.96,1,0,9,0.19
2013-6-11,59,57,55,-100,-100,-100,0,0,100,29.95,29.59,1,0,10,1.80
2013-6-12,61,57,54,-100,-100,-100,0,0,100,29.86,29.62,2,0,13,0.20
2013-6-13,64,58,52,-100,-100,-100,0,0,100,29.83,29.68,0,0,4,0.00
2013-6-14,71,62,53,-100,-100,-100,0,0,100,29.85,29.70,2,1,11,0.00
2013-6-15,72,60,49,-100,-100,-100,0,0,100,29.97,29.86,0,0,6,0.00
2013-6-16,64,58,53,-100,-100,-100,0,0,100,29.91,29.68,2,0,9,0.32
2013-6-17,69,61,54,60,-99,-100,100,1,100,29.96,29.76,2,0,7,0.17
2013-6-18,66,57,51,-100,-100,-100,0,0,100,30.00,29.93,1,0,8,0.00
2013-6-19,66,56,46,-100,-100,-100,0,0,100,30.18,30.00,2,0,8,0.00
2013-6-20,72,59,47,-100,-100,-100,0,0,100,30.26,30.17,0,0,4,0.00
2013-6-21,78,65,54,-100,-100,-100,0,0,100,30.25,30.18,0,0,1,0.00
2013-6-22,77,66,60,-100,-100,-100,0,0,100,30.20,30.07,1,0,6,0.18
2013-6-23,79,70,64,-100,-100,-100,0,0,100,30.09,29.93,2,0,8,0.56
2013-6-24,83,72,66,-100,-100,-100,0,0,100,29.97,29.86,1,0,10,0.50
2013-6-25,82,70,65,-100,-100,-100,0,0,100,29.91,29.73,2,0,8,1.88
2013-6-26,72,68,65,-100,-100,-100,0,0,100,29.80,29.73,0,0,6,0.45
2013-6-27,78,71,64,-100,-100,-100,0,0,100,29.78,29.69,0,0,5,0.00
2013-6-28,72,65,60,-100,-100,-100,0,0,100,29.69,29.38,2,0,13,0.51
2013-6-29,68,63,61,-100,-100,-100,0,0,100,29.66,29.49,1,0,7,3.85
2013-6-30,76,68,62,-100,-100,-100,0,0,100,29.92,29.66,1,0,5,0.10
2013-7-1,70,67,64,-100,-100,-100,0,0,100,30.08,29.92,0,0,7,0.42
2013-7-2,72,65,60,-100,-100,-100,0,0,100,30.12,30.06,1,0,6,0.17
2013-7-3,76,71,66,-100,-100,-100,0,0,100,30.15,30.09,0,0,5,0.58
2013-7-4,82,72,68,72,-91,-100,100,5,100,30.16,30.06,1,0,10,1.95
2013-7-5,83,73,68,70,-96,-100,100,2,100,30.12,30.02,1,0,10,0.20
2013-7-6,79,73,69,-100,-100,-100,0,0,100,30.06,29.97,1,0,8,0.00
2013-7-7,78,71,65,-100,-100,-100,0,0,100,30.01,29.92,0,0,5,0.01
2013-7-8,74,70,68,-100,-100,-100,0,0,100,30.03,29.92,1,0,6,0.04
2013-7-9,82,73,67,-100,-100,-100,0,0,100,30.06,29.95,0,0,5,0.00
2013-7-10,79,74,70,-100,-100,-100,0,0,100,29.95,29.69,2,1,16,0.02
2013-7-11,78,71,64,-100,-100,-100,0,0,100,30.00,29.70,2,0,9,0.12
2013-7-12,76,67,59,-100,-100,-100,0,0,100,30.19,30.01,1,0,8,0.00
2013-7-13,78,70,61,-100,-100,-100,0,0,100,30.27,30.20,1,0,7,0.00
2013-7-14,83,75,70,-100,-100,-100,0,0,100,30.30,30.20,0,0,4,0.03
2013-7-15,87,77,69,-100,-100,-100,0,0,100,30.22,30.13,1,0,9,0.00
2013-7-16,85,76,68,-100,-100,-100,0,0,100,30.22,30.15,1,0,7,0.00
2013-7-17,89,77,69,-100,-100,-100,0,0,100,30.18,29.94,1,0,6,0.11
2013-7-18,85,76,70,-100,-100,-100,0,0,100,30.02,29.90,0,0,5,0.06
2013-7-19,88,78,72,-100,-100,-100,0,0,100,29.90,29.62,4,1,25,0.03
2013-7-20,78,73,68,-100,-100,-100,0,0,100,29.82,29.61,2,0,11,0.09
2013-7-21,73,66,59,-100,-100,-100,0,0,100,30.01,29.82,0,0,6,0.00
2013-7-22,76,67,56,-100,-100,-100,0,0,100,30.02,29.83,0,0,4,0.10
2013-7-23,71,68,67,-100,-100,-100,0,0,100,29.82,29.53,0,0,4,0.47
2013-7-24,67,63,56,-100,-100,-100,0,0,100,30.04,29.55,2,0,14,0.33
2013-7-25,69,58,49,-100,-100,-100,0,0,100,30.14,30.05,1,0,9,0.00
2013-7-26,70,62,54,-100,-100,-100,0,0,100,30.11,30.01,0,0,7,0.00
2013-7-27,79,66,55,-100,-100,-100,0,0,100,30.05,29.93,0,0,4,0.00
2013-7-28,76,69,64,-100,-100,-100,0,0,100,29.96,29.88,1,0,11,0.00
2013-7-29,75,68,64,-100,-100,-100,0,0,100,30.07,29.94,1,0,9,0.41
2013-7-30,71,65,60,-100,-100,-100,0,0,100,30.12,30.05,0,0,5,0.00
2013-7-31,77,67,58,-100,-100,-100,0,0,100,30.14,30.00,1,0,6,0.00
2013-8-1,76,67,63,-100,-100,-100,0,0,100,30.00,29.80,1,0,12,0.37
2013-8-2,75,67,62,-100,-100,-100,0,0,100,29.82,29.76,1,0,10,0.06
2013-8-3,68,64,60,-100,-100,-100,0,0,100,29.83,29.76,1,0,9,0.23
2013-8-4,72,63,58,-100,-100,-100,0,0,100,29.93,29.81,2,0,12,0.07
2013-8-5,70,61,52,-100,-100,-100,0,0,100,30.04,29.94,1,0,12,0.02
2013-8-6,74,62,53,-100,-100,-100,0,0,100,30.11,30.04,0,0,6,0.00
2013-8-7,80,68,58,-100,-100,-100,0,0,100,30.11,29.97,2,1,13,0.00
2013-8-8,81,72,69,-100,-100,-100,0,0,100,29.98,29.92,2,1,11,0.05
2013-8-9,72,70,67,70,-96,-100,100,2,100,29.93,29.76,0,0,9,0.98
2013-8-10,72,65,58,-100,-100,-100,0,0,100,30.03,29.78,1,0,12,0.00
2013-8-11,76,64,54,-100,-100,-100,0,0,100,30.08,29.97,1,0,7,0.00
2013-8-12,76,66,57,-100,-100,-100,0,0,100,30.01,29.89,0,0,2,0.00
2013-8-13,73,65,62,-100,-100,-100,0,0,100,29.89,29.67,1,0,9,0.11
2013-8-14,64,60,55,-100,-100,-100,0,0,100,29.95,29.69,1,0,14,0.59
2013-8-15,70,60,50,-100,-100,-100,0,0,100,30.09,29.96,1,0,6,0.00
2013-8-16,74,62,53,-100,-100,-100,0,0,100,30.21,30.08,1,0,14,0.05
2013-8-17,74,64,58,-100,-100,-100,0,0,100,30.31,30.22,0,0,6,0.00
2013-8-18,74,64,56,-100,-100,-100,0,0,100,30.28,30.08,0,0,5,0.00
2013-8-19,78,67,58,-100,-100,-100,0,0,100,30.08,29.95,0,0,7,0.00
2013-8-20,81,69,60,-100,-100,-100,0,0,100,30.08,29.99,0,0,3,0.00
2013-8-21,83,72,62,-100,-100,-100,0,0,100,30.13,29.97,1,0,5,0.00
2013-8-22,82,70,65,-100,-100,-100,0,0,100,30.00,29.81,2,0,15,0.61
2013-8-23,70,63,56,-100,-100,-100,0,0,100,30.19,29.88,1,0,13,0.00
2013-8-24,74,61,52,-100,-100,-100,0,0,100,30.34,30.19,0,0,4,0.00
2013-8-25,76,63,52,-100,-100,-100,0,0,100,30.38,30.12,0,0,3,0.01
2013-8-26,69,66,62,-100,-100,-100,0,0,100,30.12,29.88,1,0,6,0.38
2013-8-27,69,67,67,-100,-100,-100,0,0,100,29.92,29.88,0,0,4,0.00
2013-8-29,76,72,66,-100,-100,-100,0,0,100,30.02,29.98,0,0,6,0.00
2013-8-30,81,72,64,-100,-100,-100,0,0,100,30.00,29.75,0,0,5,0.00
2013-8-31,72,71,69,-100,-100,-100,0,0,100,29.79,29.74,0,0,7,0.01
2013-9-1,79,72,66,-100,-100,-100,0,0,100,29.87,29.79,0,0,3,0.00
2013-9-2,76,71,64,-100,-100,-100,0,0,100,29.81,29.65,1,0,15,0.40
2013-9-3,74,65,62,-100,-100,-100,0,0,100,29.79,29.69,1,0,8,0.43
2013-9-4,69,63,58,-100,-100,-100,0,0,100,29.92,29.80,0,0,9,0.23
2013-9-5,62,56,49,-100,-100,-100,0,0,100,30.17,29.89,1,0,11,0.00
2013-9-6,67,54,44,-100,-100,-100,0,0,100,30.25,30.06,0,0,6,0.00
2013-9-7,64,59,54,-100,-100,-100,0,0,100,30.05,29.84,1,0,12,0.01
2013-9-8,60,55,47,-100,-100,-100,0,0,100,30.10,29.77,2,0,15,0.27
2013-9-9,66,54,43,60,-97,-100,100,2,100,30.20,30.04,1,0,11,0.00
2013-9-10,70,64,59,-100,-100,-100,0,0,100,30.05,29.96,1,0,10,0.42
2013-9-11,85,75,70,75,-96,-100,100,2,100,30.00,29.88,2,0,11,0.16
2013-9-12,72,68,65,69,-79,-100,100,12,100,29.93,29.62,1,0,7,0.53
2013-9-13,65,58,52,-100,-100,-100,0,0,100,29.87,29.61,1,1,12,1.59
2013-9-14,60,53,50,-100,-100,-100,0,0,100,30.08,29.86,1,0,8,0.08
2013-9-15,64,54,46,-100,-100,-100,0,0,100,30.13,30.01,0,0,2,0.00
2013-9-16,56,50,41,-100,-100,-100,0,0,100,30.34,30.01,1,0,12,0.42
2013-9-17,62,47,37,-100,-100,-100,0,0,100,30.49,30.32,0,0,4,0.00
2013-9-18,69,53,42,-100,-100,-100,0,0,100,30.33,30.12,0,0,1,0.00
2013-9-19,74,57,47,-100,-100,-100,0,0,100,30.16,30.02,0,0,1,0.00
2013-9-20,78,62,52,-100,-100,-100,0,0,100,30.08,29.89,0,0,2,0.00
2013-9-21,74,66,60,69,-96,-100,100,2,100,29.90,29.58,3,1,19,0.41
2013-9-22,63,56,49,51,-90,-100,100,6,100,29.91,29.56,1,0,13,0.32
2013-9-23,49,47,45,-100,-100,-100,0,0,100,30.06,29.91,1,0,11,0.01
2013-9-24,64,52,47,-100,-100,-100,0,0,100,30.05,29.91,1,0,10,0.00
2013-9-25,64,52,44,-100,-100,-100,0,0,100,30.02,29.94,1,0,7,0.00
2013-9-26,60,51,42,-100,-100,-100,0,0,100,30.18,30.03,1,0,9,0.00
2013-9-27,66,56,52,-100,-100,-100,0,0,100,30.30,30.18,0,0,6,0.00
2013-9-28,73,56,48,-100,-100,-100,0,0,100,30.38,30.24,0,0,5,0.00
2013-9-29,74,58,49,-100,-100,-100,0,0,100,30.24,30.05,0,0,3,0.00
2013-9-30,74,58,50,-100,-100,-100,0,0,100,30.09,29.97,0,0,4,0.00
2013-10-1,75,59,50,-100,-100,-100,0,0,100,30.01,29.87,0,0,4,0.00
2013-10-2,75,61,53,-100,-100,-100,0,0,100,29.97,29.82,0,0,7,0.00
2013-10-3,71,57,49,-100,-100,-100,0,0,100,30.12,29.97,0,0,3,0.00
2013-10-4,61,55,48,-100,-100,-100,0,0,100,30.12,30.05,0,0,5,0.00
2013-10-5,66,57,52,-100,-100,-100,0,0,100,30.15,30.08,0,0,8,0.01
2013-10-6,57,53,50,-100,-100,-100,0,0,100,30.16,29.99,1,0,12,0.27
2013-10-7,74,60,54,-100,-100,-100,0,0,100,29.99,29.56,2,0,14,1.08
2013-10-8,61,51,44,-100,-100,-100,0,0,100,30.39,29.88,1,0,18,0.00
2013-10-9,66,49,39,-100,-100,-100,0,0,100,30.46,30.34,0,0,4,0.00
2013-10-10,61,50,42,-100,-100,-100,0,0,100,30.34,30.20,0,0,4,0.00
2013-10-11,68,52,43,-100,-100,-100,0,0,100,30.20,30.14,0,0,2,0.00
2013-10-12,74,55,45,-100,-100,-100,0,0,100,30.33,30.18,0,0,5,0.00
2013-10-13,72,56,49,-100,-100,-100,0,0,100,30.40,30.28,1,0,8,0.00
2013-10-14,57,55,52,-100,-100,-100,0,0,100,30.32,30.25,1,0,8,0.11
2013-10-15,62,54,49,-100,-100,-100,0,0,100,30.29,30.09,0,0,4,0.01
2013-10-16,63,58,52,-100,-100,-100,0,0,100,30.08,29.80,2,1,12,0.03
2013-10-17,67,57,53,-100,-100,-100,0,0,100,29.83,29.70,2,0,13,0.26
2013-10-18,60,54,50,-100,-100,-100,0,0,100,29.88,29.62,3,1,13,0.36
2013-10-19,58,51,43,-100,-100,-100,0,0,100,29.90,29.66,3,0,11,0.03
2013-10-20,56,50,42,-100,-100,-100,0,0,100,29.99,29.61,3,1,14,0.01
2013-10-21,61,49,37,-100,-100,-100,0,0,100,30.05,29.85,2,0,11,0.00
2013-10-22,57,50,40,-100,-100,-100,0,0,100,29.84,29.70,3,1,14,0.03
2013-10-23,53,43,37,-100,-100,-100,0,0,100,29.78,29.62,1,0,6,0.00
2013-10-24,43,40,34,-100,-100,-100,0,0,100,29.80,29.67,2,1,10,0.03
2013-10-25,43,40,37,-100,-100,-100,0,0,100,30.13,29.88,1,0,10,0.00
2013-10-26,44,40,34,-100,-100,-100,0,0,100,30.11,29.78,4,1,16,0.03
2013-10-27,47,43,37,-100,-100,-100,0,0,100,30.02,29.74,2,1,12,0.00
2013-10-28,47,39,30,-100,-100,-100,0,0,100,30.40,29.99,3,1,21,0.01
2013-10-29,47,32,25,-100,-100,-100,0,0,100,30.50,30.36,1,0,5,0.00
2013-10-30,44,36,31,-100,-100,-100,0,0,100,30.34,30.19,1,0,4,0.00
2013-10-31,58,46,37,-100,-100,-100,0,0,100,30.22,29.61,5,2,18,0.16
2013-11-1,67,60,53,-100,-100,-100,0,0,100,29.62,29.24,8,4,19,0.16
2013-11-2,54,47,38,-100,-100,-100,0,0,100,29.92,29.60,1,0,10,0.14
2013-11-3,42,33,26,-100,-100,-100,0,0,100,30.49,29.92,2,0,14,0.00
2013-11-4,42,29,22,-100,-100,-100,0,0,100,30.70,30.51,1,0,7,0.00
2013-11-5,52,39,28,-100,-100,-100,0,0,100,30.65,30.41,4,1,14,0.00
2013-11-6,57,50,43,-100,-100,-100,0,0,100,30.40,29.85,5,2,25,0.00
2013-11-7,55,47,36,-100,-100,-100,0,0,100,29.88,29.69,6,2,19,0.13
2013-11-8,38,36,34,-100,-100,-100,0,0,100,30.10,29.84,3,1,16,0.00
2013-11-9,42,37,33,-100,-100,-100,0,0,100,30.20,29.93,2,1,12,0.01
2013-11-10,46,40,36,-100,-100,-100,0,0,100,29.92,29.68,3,1,13,0.12
2013-11-11,42,38,34,-100,-100,-100,0,0,100,30.10,29.82,4,2,16,0.01
2013-11-12,34,28,26,-100,-100,-100,0,0,100,30.27,29.93,2,1,15,0.00
2013-11-13,33,28,22,-100,-100,-100,0,0,100,30.34,30.02,3,1,12,0.03
2013-11-14,46,35,31,-100,-100,-100,0,0,100,30.04,30.00,3,1,11,0.02
2013-11-15,53,41,33,-100,-100,-100,0,0,100,30.17,30.04,3,1,12,0.00
2013-11-16,56,42,33,-100,-100,-100,0,0,100,30.28,30.16,1,0,7,0.00
2013-11-17,53,46,38,-100,-100,-100,0,0,100,30.23,29.66,2,0,12,0.03
2013-11-18,56,50,41,-100,-100,-100,0,0,100,29.66,29.36,7,3,21,0.24
2013-11-19,39,33,30,-100,-100,-100,0,0,100,30.38,29.67,5,2,20,0.00
2013-11-20,36,29,24,-100,-100,-100,0,0,100,30.65,30.38,1,0,11,0.00
2013-11-21,42,32,23,-100,-100,-100,0,0,100,30.64,30.35,3,1,14,0.00
2013-11-22,41,37,34,-100,-100,-100,0,0,100,30.33,29.81,1,0,6,0.14
2013-11-23,41,32,23,-100,-100,-100,0,0,100,30.00,29.77,3,1,18,0.01
2013-11-24,22,19,16,-100,-100,-100,0,0,100,30.26,29.88,4,3,29,0.00
2013-11-25,30,21,13,-100,-100,-100,0,0,100,30.39,30.13,3,1,15,0.03
2013-11-26,34,32,30,-100,-100,-100,0,0,100,30.23,29.96,4,2,15,0.01
2013-11-27,34,33,30,-100,-100,-100,0,0,100,29.96,29.40,1,0,12,0.91
2013-11-28,29,22,16,-100,-100,-100,0,0,100,30.42,29.55,3,1,17,0.02
2013-11-29,25,18,10,-100,-100,-100,0,0,100,30.77,30.43,0,0,4,0.02
2013-11-30,29,20,10,-100,-100,-100,0,0,100,30.80,30.31,3,1,20,0.00
2013-12-1,36,32,29,-100,-100,-100,0,0,100,30.31,30.05,4,1,14,0.06
2013-12-2,35,32,29,-100,-100,-100,0,0,100,30.04,29.90,0,0,2,0.06
2013-12-3,38,33,30,-100,-100,-100,0,0,100,30.02,29.91,0,0,7,0.03
2013-12-4,36,31,27,-100,-100,-100,0,0,100,30.16,30.02,0,0,3,0.01
2013-12-5,52,42,31,-100,-100,-100,0,0,100,30.12,29.81,4,1,16,0.00
2013-12-6,48,37,33,-100,-100,-100,0,0,100,30.15,29.88,1,0,12,0.44
2013-12-7,33,29,24,-100,-100,-100,0,0,100,30.47,30.13,2,1,12,0.00
2013-12-8,28,25,22,-100,-100,-100,0,0,100,30.59,30.45,1,0,9,0.00
2013-12-9,35,30,26,-100,-100,-100,0,0,100,30.45,29.82,4,1,11,0.01
2013-12-10,34,29,23,-100,-100,-100,0,0,100,29.94,29.80,4,1,18,0.01
2013-12-11,28,23,19,-100,-100,-100,0,0,100,30.18,29.95,5,1,15,0.00
2013-12-12,19,16,10,-100,-100,-100,0,0,100,30.31,29.95,4,1,13,0.00
2013-12-13,19,15,6,-100,-100,-100,0,0,100,30.45,29.89,3,1,17,0.00
2013-12-14,14,8,1,-100,-100,-100,0,0,100,30.63,30.16,0,0,8,0.00
2013-12-15,23,19,13,-100,-100,-100,0,0,100,30.12,29.56,1,0,10,0.00
2013-12-16,16,10,0,-100,-100,-100,0,0,100,30.26,29.69,1,0,15,0.00
2013-12-17,16,7,-3,-100,-100,-100,0,0,100,30.27,30.01,0,0,6,0.00
2013-12-18,26,21,15,-100,-100,-100,0,0,100,30.01,29.93,1,0,6,0.00
2013-12-19,34,30,26,-100,-100,-100,0,0,100,30.08,29.90,2,0,12,0.00
2013-12-20,33,29,23,-100,-100,-100,0,0,100,30.08,29.91,1,0,5,0.04
2013-12-21,29,27,24,-100,-100,-100,0,0,100,30.00,29.81,1,0,6,0.00
2013-12-22,29,27,24,-100,-100,-100,0,0,100,30.00,29.75,0,0,5,0.00
2013-12-23,30,28,25,-100,-100,-100,0,0,100,30.19,29.97,0,0,0,0.00
2013-12-24,24,17,10,-100,-100,-100,0,0,100,30.36,30.17,0,0,0,0.00
2013-12-25,15,9,4,-100,-100,-100,0,0,100,30.57,30.37,0,0,0,0.00
2013-12-26,26,22,16,-100,-100,-100,0,0,100,30.37,30.09,0,0,0,0.00
2013-12-27,29,26,22,-100,-100,-100,0,0,100,30.22,30.15,1,0,5,0.00
2013-12-28,32,30,21,-100,-100,-100,0,0,100,30.14,29.99,0,0,7,0.00
2013-12-29,36,32,28,-100,-100,-100,0,0,100,30.00,29.60,1,0,8,0.00
2013-12-30,33,20,7,-100,-100,-100,0,0,100,30.26,29.59,0,0,7,0.00
2013-12-31,18,12,7,-100,-100,-100,0,0,100,30.24,30.01,2,0,11,0.00
2014-1-1,16,11,2,-100,-100,-100,0,0,100,30.48,30.14,1,0,9,0.00
2014-1-2,2,-4,-6,-100,-100,-100,0,0,100,30.48,30.09,1,1,10,0.00